H1 CPF 1 NER 2020 7 16 9 6981 glonass136 H2 1603201 9136 41554 2020 7 16 0 0 0 2020 7 19 23 45 0 900 1 1 0 0 0 H9 10 0 59046 0.00000 0 8158155.867 -14908818.593 -19024925.909 10 0 59046 900.00000 0 10043632.380 -16097157.021 -17059419.385 10 0 59046 1800.00000 0 11621994.675 -17269598.344 -14762832.888 10 0 59046 2700.00000 0 12875444.603 -18367025.612 -12179874.720 10 0 59046 3600.00000 0 13798911.788 -19329966.027 -9360757.304 10 0 59046 4500.00000 0 14399996.485 -20101152.598 -6360218.768 10 0 59046 5400.00000 0 14698390.125 -20628008.715 -3236460.727 10 0 59046 6300.00000 0 14724799.985 -20864951.838 -50022.799 10 0 59046 7200.00000 0 14519424.914 -20775420.263 3137384.456 10 0 59046 8100.00000 0 14130047.539 -20333538.664 6264065.996 10 0 59046 9000.00000 0 13609823.891 -19525353.165 9269525.849 10 0 59046 9900.00000 0 13014863.650 -18349584.643 12095625.550 10 0 59046 10800.00000 0 12401702.516 -16817868.797 14687696.107 10 0 59046 11700.00000 0 11824772.389 -14954472.639 16995583.094 10 0 59046 12600.00000 0 11333974.876 -12795498.479 18974605.779 10 0 59046 13500.00000 0 10972459.209 -10387607.353 20586412.943 10 0 59046 14400.00000 0 10774697.151 -7786313.335 21799719.842 10 0 59046 15300.00000 0 10764935.281 -5053917.709 22590912.831 10 0 59046 16200.00000 0 10956089.594 -2257166.600 22944510.392 10 0 59046 17100.00000 0 11349129.305 535273.023 22853471.689 10 0 59046 18000.00000 0 11932976.760 3255416.275 22319346.196 10 0 59046 18900.00000 0 12684929.133 5838536.073 21352260.612 10 0 59046 19800.00000 0 13571586.105 8225606.185 19970741.972 10 0 59046 20700.00000 0 14550246.564 10365510.907 18201378.761 10 0 59046 21600.00000 0 15570717.573 12216929.892 16078324.775 10 0 59046 22500.00000 0 16577461.213 13749819.476 13642653.537 10 0 59046 23400.00000 0 17511990.051 14946428.157 10941574.196 10 0 59046 24300.00000 0 18315410.851 15801803.060 8027522.857 10 0 59046 25200.00000 0 18931009.009 16323765.470 4957146.164 10 0 59046 26100.00000 0 19306763.733 16532355.850 1790196.753 10 0 59046 27000.00000 0 19397686.192 16458771.504 -1411637.597 10 0 59046 27900.00000 0 19167879.876 16143841.897 -4585947.438 10 0 59046 28800.00000 0 18592233.898 15636106.700 -7670832.682 10 0 59046 29700.00000 0 17657675.484 14989579.000 -10606125.556 10 0 59046 30600.00000 0 16363926.756 14261289.828 -13334579.949 10 0 59046 31500.00000 0 14723732.289 13508719.726 -15803002.132 10 0 59046 32400.00000 0 12762546.705 12787227.822 -17963299.418 10 0 59046 33300.00000 0 10517694.818 12147588.891 -19773425.229 10 0 59046 34200.00000 0 8037039.522 11633743.858 -21198201.413 10 0 59046 35100.00000 0 5377213.520 11280859.687 -22210001.693 10 0 59046 36000.00000 0 2601489.356 11113780.944 -22789283.195 10 0 59046 36900.00000 0 -222622.625 11145938.129 -22924956.379 10 0 59046 37800.00000 0 -3025947.738 11378758.142 -22614587.162 10 0 59046 38700.00000 0 -5740284.484 11801600.626 -21864428.476 10 0 59046 39600.00000 0 -8300996.416 12392221.510 -20689281.882 10 0 59046 40500.00000 0 -10649451.219 13117742.815 -19112193.161 10 0 59046 41400.00000 0 -12735206.720 13936086.484 -17163988.925 10 0 59046 42300.00000 0 -14517854.366 14797810.668 -14882664.225 10 0 59046 43200.00000 0 -15968445.520 15648270.226 -12312633.859 10 0 59046 44100.00000 0 -17070443.436 16430009.897 -9503862.444 10 0 59046 45000.00000 0 -17820163.615 17085289.137 -6510890.626 10 0 59046 45900.00000 0 -18226686.672 17558632.421 -3391776.467 10 0 59046 46800.00000 0 -18311249.653 17799298.041 -206972.516 10 0 59046 47700.00000 0 -18106143.294 17763562.090 2981839.787 10 0 59046 48600.00000 0 -17653163.034 17416722.219 6112936.217 10 0 59046 49500.00000 0 -17001679.850 16734737.565 9125734.045 10 0 59046 50400.00000 0 -16206412.373 15705436.473 11961952.275 10 0 59046 51300.00000 0 -15324993.861 14329241.512 14566726.400 10 0 59046 52200.00000 0 -14415435.685 12619381.157 16889657.254 10 0 59046 53100.00000 0 -13533593.015 10601578.645 18885774.759 10 0 59046 54000.00000 0 -12730738.077 8313229.763 20516399.156 10 0 59046 54900.00000 0 -12051341.757 5802102.152 21749884.088 10 0 59046 55800.00000 0 -11531155.767 3124608.272 22562227.934 10 0 59046 56700.00000 0 -11195675.247 343721.453 22937542.059 10 0 59046 57600.00000 0 -11059046.163 -2473380.888 22868366.967 10 0 59046 58500.00000 0 -11123463.751 -5257851.343 22355829.789 10 0 59046 59400.00000 0 -11379088.125 -7941780.905 21409639.194 10 0 59046 60300.00000 0 -11804481.930 -10460775.147 20047916.508 10 0 59046 61200.00000 0 -12367553.264 -12756392.294 18296864.669 10 0 59046 62100.00000 0 -13026965.926 -14778342.430 16190279.670 10 0 59046 63000.00000 0 -13733959.213 -16486356.395 13768912.094 10 0 59046 63900.00000 0 -14434501.815 -17851645.858 11079689.552 10 0 59046 64800.00000 0 -15071689.686 -18857892.887 8174813.793 10 0 59046 65700.00000 0 -15588286.686 -19501726.648 5110749.189 10 0 59046 66600.00000 0 -15929300.013 -19792666.344 1947122.050 10 0 59046 67500.00000 0 -16044480.240 -19752532.274 -1254447.469 10 0 59046 68400.00000 0 -15890638.354 -19414349.565 -4431557.315 10 0 59046 69300.00000 0 -15433679.648 -18820791.148 -7522254.272 10 0 59046 70200.00000 0 -14650266.105 -18022226.524 -10466257.907 10 0 59046 71100.00000 0 -13529034.790 -17074460.003 -13206152.127 10 0 59046 72000.00000 0 -12071318.861 -16036255.609 -15688519.327 10 0 59046 72900.00000 0 -10291339.282 -14966754.984 -17864993.561 10 0 59046 73800.00000 0 -8215858.066 -13922899.021 -19693211.135 10 0 59046 74700.00000 0 -5883307.198 -12956963.576 -21137639.324 10 0 59046 75600.00000 0 -3342429.613 -12114314.207 -22170266.953 10 0 59046 76500.00000 0 -650489.415 -11431475.101 -22771143.649 10 0 59046 77400.00000 0 2128873.383 -10934593.449 -22928757.898 10 0 59046 78300.00000 0 4928053.638 -10638363.226 -22640247.558 10 0 59046 79200.00000 0 7678056.597 -10545452.508 -21911439.859 10 0 59046 80100.00000 0 10311130.808 -10646456.867 -20756721.364 10 0 59046 81000.00000 0 12763349.202 -10920379.024 -19198741.636 10 0 59046 81900.00000 0 14977031.785 -11335612.797 -17267957.484 10 0 59046 82800.00000 0 16902910.228 -11851388.190 -15002027.646 10 0 59046 83700.00000 0 18501945.918 -12419615.371 -12445070.457 10 0 59046 84600.00000 0 19746727.717 -12987048.731 -9646799.491 10 0 59046 85500.00000 0 20622393.243 -13497679.163 -6661554.437 10 0 59047 0.00000 0 21127037.564 -13895253.464 -3547246.237 10 0 59047 900.00000 0 21271594.292 -14125814.477 -364236.540 10 0 59047 1800.00000 0 21079196.505 -14140156.128 2825825.915 10 0 59047 2700.00000 0 20584045.107 -13896088.991 5961191.177 10 0 59047 3600.00000 0 19829834.188 -13360423.228 8981192.931 10 0 59047 4500.00000 0 18867799.427 -12510584.855 11827410.424 10 0 59047 5400.00000 0 17754471.858 -11335798.224 14444785.967 10 0 59047 6300.00000 0 16549230.714 -9837784.835 16782677.494 10 0 59047 7200.00000 0 15311757.260 -8030948.745 18795826.936 10 0 59047 8100.00000 0 14099495.229 -5942039.717 20445226.880 10 0 59047 9000.00000 0 12965223.077 -3609306.602 21698869.796 10 0 59047 9900.00000 0 11954838.605 -1081174.258 22532366.117 10 0 59047 10800.00000 0 11105447.746 1585503.303 22929419.742 10 0 59047 11700.00000 0 10443836.942 4327543.528 22882151.809 10 0 59047 12600.00000 0 9985392.929 7077804.905 22391266.081 10 0 59047 13500.00000 0 9733515.511 9767729.547 21466051.886 10 0 59047 14400.00000 0 9679548.695 12329955.223 20124223.256 10 0 59047 15300.00000 0 9803234.238 14700889.731 18391595.785 10 0 59047 16200.00000 0 10073669.844 16823141.470 16301605.659 10 0 59047 17100.00000 0 10450733.080 18647705.309 13894678.350 10 0 59047 18000.00000 0 10886912.160 20135812.188 11217457.600 10 0 59047 18900.00000 0 11329467.159 21260364.454 8321908.346 10 0 59047 19800.00000 0 11722830.562 22006895.822 5264310.109 10 0 59047 20700.00000 0 12011145.302 22374014.566 2104160.235 10 0 59047 21600.00000 0 12140831.813 22373310.382 -1096991.417 10 0 59047 22500.00000 0 12063073.806 22028728.236 -4276752.810 10 0 59047 23400.00000 0 11736115.491 21375435.402 -7373120.109 10 0 59047 24300.00000 0 11127270.668 20458229.868 -10325702.548 10 0 59047 25200.00000 0 10214556.353 19329558.123 -13076916.156 10 0 59047 26100.00000 0 8987879.747 18047227.324 -15573121.296 10 0 59047 27000.00000 0 7449726.577 16671909.923 -17765680.346 10 0 59047 27900.00000 0 5615320.385 15264547.642 -19611913.831 10 0 59047 28800.00000 0 3512245.225 13883765.746 -21075935.574 10 0 59047 29700.00000 0 1179547.159 12583407.668 -22129350.412 10 0 59047 30600.00000 0 -1333647.821 11410294.397 -22751801.176 10 0 59047 31500.00000 0 -3969941.264 10402302.963 -22931354.848 10 0 59047 32400.00000 0 -6665819.283 9586844.202 -22664721.413 10 0 59047 33300.00000 0 -9354068.770 8979802.608 -21957302.253 10 0 59047 34200.00000 0 -11966351.816 8584981.203 -20823068.405 10 0 59047 35100.00000 0 -14435831.256 8394072.747 -19284272.284 10 0 59047 36000.00000 0 -16699738.461 8387156.362 -17370999.583 10 0 59047 36900.00000 0 -18701777.258 8533696.564 -15120571.063 10 0 59047 37800.00000 0 -20394265.120 8794000.724 -12576806.668 10 0 59047 38700.00000 0 -21739923.991 9121071.933 -9789166.811 10 0 59047 39600.00000 0 -22713247.854 9462778.020 -6811787.970 10 0 59047 40500.00000 0 -23301391.969 9764244.475 -3702431.513 10 0 59047 41400.00000 0 -23504548.672 9970370.061 -521366.097 10 0 59047 42300.00000 0 -23335795.853 10028359.046 2669794.748 10 0 59047 43200.00000 0 -22820426.150 9890163.657 5809277.770 10 0 59047 44100.00000 0 -21994786.188 9514734.275 8836335.513 10 0 59047 45000.00000 0 -20904675.273 8869983.160 11692409.938 10 0 59047 45900.00000 0 -19603370.936 7934379.452 14322252.630 10 0 59047 46800.00000 0 -18149363.753 6698108.524 16674981.041 10 0 59047 47700.00000 0 -16603895.639 5163746.745 18705051.410 10 0 59047 48600.00000 0 -15028403.550 3346422.575 20373130.793 10 0 59047 49500.00000 0 -13481974.247 1273455.859 21646852.370 10 0 59047 50400.00000 0 -12018915.198 -1016511.422 22501440.224 10 0 59047 51300.00000 0 -10686541.904 -3474859.011 22920192.035 10 0 59047 52200.00000 0 -9523273.052 -6044753.539 22894810.468 10 0 59047 53100.00000 0 -8557112.592 -8663264.146 22425576.416 10 0 59047 54000.00000 0 -7804581.915 -11263743.242 21521359.966 10 0 59047 54900.00000 0 -7270147.145 -13778375.752 20199467.553 10 0 59047 55800.00000 0 -6946166.156 -16140792.553 18485326.701 10 0 59047 56700.00000 0 -6813358.502 -18288640.593 16412012.657 10 0 59047 57600.00000 0 -6841779.547 -20166003.150 14019624.257 10 0 59047 58500.00000 0 -6992258.810 -21725569.081 11354519.488 10 0 59047 59400.00000 0 -7218242.637 -22930459.729 8468424.270 10 0 59047 60300.00000 0 -7467963.698 -23755635.946 5417430.808 10 0 59047 61200.00000 0 -7686845.386 -24188824.867 2260904.791 10 0 59047 62100.00000 0 -7820038.538 -24230926.241 -939677.076 10 0 59047 63000.00000 0 -7814981.616 -23895880.217 -4121935.782 10 0 59047 63900.00000 0 -7623874.022 -23210001.427 -7223819.998 10 0 59047 64800.00000 0 -7205955.571 -22210807.367 -10184831.819 10 0 59047 65700.00000 0 -6529493.194 -20945390.856 -12947222.627 10 0 59047 66600.00000 0 -5573388.609 -19468406.104 -15457133.920 10 0 59047 67500.00000 0 -4328336.931 -17839754.605 -17665659.445 10 0 59047 68400.00000 0 -2797485.704 -16122069.754 -19529806.740 10 0 59047 69300.00000 0 -996565.406 -14378107.619 -21013338.608 10 0 59047 70200.00000 0 1046514.728 -12668154.790 -22087477.897 10 0 59047 71100.00000 0 3292588.928 -11047563.051 -22731462.122 10 0 59047 72000.00000 0 5692636.323 -9564514.679 -22932937.707 10 0 59047 72900.00000 0 8189602.698 -8258111.751 -22688187.164 10 0 59047 73800.00000 0 10720566.088 -7156868.579 -22002185.914 10 0 59047 74700.00000 0 13219155.450 -6277668.939 -20888488.872 10 0 59047 75600.00000 0 15618121.442 -5625229.788 -19368950.243 10 0 59047 76500.00000 0 17851952.325 -5192091.622 -17473283.097 10 0 59047 77400.00000 0 19859426.369 -4959133.467 -15238468.274 10 0 59047 78300.00000 0 21585995.277 -4896588.491 -12708024.935 10 0 59047 79200.00000 0 22985900.404 -4965515.375 -9931157.508 10 0 59047 80100.00000 0 24023934.924 -5119661.771 -6961796.056 10 0 59047 81000.00000 0 24676780.048 -5307640.034 -3857548.915 10 0 59047 81900.00000 0 24933861.247 -5475322.676 -678587.888 10 0 59047 82800.00000 0 24797690.349 -5568356.200 2513512.458 10 0 59047 83700.00000 0 24283680.755 -5534687.328 5656959.316 10 0 59047 84600.00000 0 23419444.756 -5326995.429 8690927.645 10 0 59047 85500.00000 0 22243603.162 -4904929.128 11556725.361 10 0 59048 0.00000 0 20804157.456 -4237053.439 14198916.126 10 0 59048 900.00000 0 19156492.300 -3302425.317 16566379.408 10 0 59048 1800.00000 0 17361091.533 -2091732.758 18613287.661 10 0 59048 2700.00000 0 15481061.904 -607946.952 20299983.886 10 0 59048 3600.00000 0 13579566.565 1133538.657 21593743.021 10 0 59048 4500.00000 0 11717274.174 3105291.192 22469403.406 10 0 59048 5400.00000 0 9949928.426 5268728.549 22909856.707 10 0 59048 6300.00000 0 8326138.070 7575482.524 22906386.903 10 0 59048 7200.00000 0 6885478.670 9969180.638 22458851.409 10 0 59048 8100.00000 0 5656984.636 12387575.188 21575700.057 10 0 59048 9000.00000 0 4658094.326 14764933.424 20273830.299 10 0 59048 9900.00000 0 3894092.591 17034591.333 18578279.857 10 0 59048 10800.00000 0 3358074.633 19131566.178 16521760.999 10 0 59048 11700.00000 0 3031433.457 20995119.706 14144043.614 10 0 59048 12600.00000 0 2884851.290 22571165.046 11491197.411 10 0 59048 13500.00000 0 2879753.851 23814416.153 8614706.575 10 0 59048 14400.00000 0 2970166.509 24690188.695 5570473.150 10 0 59048 15300.00000 0 3104893.830 25175775.401 2417728.240 10 0 59048 16200.00000 0 3229929.662 25261336.558 -782127.563 10 0 59048 17100.00000 0 3290994.501 24950266.779 -3966731.170 10 0 59048 18000.00000 0 3236090.971 24259021.453 -7073986.536 10 0 59048 18900.00000 0 3017967.024 23216409.557 -10043291.199 10 0 59048 19800.00000 0 2596380.216 21862382.501 -12816734.213 10 0 59048 20700.00000 0 1940064.914 20246370.477 -15340240.258 10 0 59048 21600.00000 0 1028317.057 18425237.292 -17564636.184 10 0 59048 22500.00000 0 -147872.294 16460940.924 -19446618.018 10 0 59048 23400.00000 0 -1585183.781 14417999.569 -20949598.750 10 0 59048 24300.00000 0 -3267864.550 12360870.809 -22044420.214 10 0 59048 25200.00000 0 -5168155.885 10351354.813 -22709915.342 10 0 59048 26100.00000 0 -7247235.741 8446130.947 -22933310.475 10 0 59048 27000.00000 0 -9456636.429 6694530.818 -22710460.830 10 0 59048 27900.00000 0 -11740077.760 5136640.198 -22045915.694 10 0 59048 28800.00000 0 -14035638.494 3801807.940 -20952813.298 10 0 59048 29700.00000 0 -16278175.133 2707622.324 -19452608.680 10 0 59048 30600.00000 0 -18401886.976 1859395.313 -17574640.925 10 0 59048 31500.00000 0 -20342920.473 1250173.822 -15355549.239 10 0 59048 32400.00000 0 -22041904.747 861274.814 -12838550.004 10 0 59048 33300.00000 0 -23446313.224 663319.252 -10072589.452 10 0 59048 34200.00000 0 -24512553.825 617719.267 -7111388.874 10 0 59048 35100.00000 0 -25207701.724 678554.116 -4012401.121 10 0 59048 36000.00000 0 -25510803.707 794754.631 -835698.627 10 0 59048 36900.00000 0 -25413701.030 912503.307 2357185.567 10 0 59048 37800.00000 0 -24921337.723 977748.536 5504441.697 10 0 59048 38700.00000 0 -24051542.597 938727.013 8545169.757 10 0 59048 39600.00000 0 -22834294.842 748388.436 11420546.244 10 0 59048 40500.00000 0 -21310504.329 366620.756 14074949.577 10 0 59048 41400.00000 0 -19530357.476 -237817.220 16457023.525 10 0 59048 42300.00000 0 -17551297.218 -1085736.909 18520659.144 10 0 59048 43200.00000 0 -15435720.379 -2186400.337 20225877.462 10 0 59048 44100.00000 0 -13248487.095 -3536887.445 21539596.921 10 0 59048 45000.00000 0 -11054344.552 -5121977.943 22436271.517 10 0 59048 45900.00000 0 -8915370.662 -6914554.394 22898387.919 10 0 59048 46800.00000 0 -6888542.554 -8876511.897 22916812.039 10 0 59048 47700.00000 0 -5023529.804 -10960138.878 22490978.056 10 0 59048 48600.00000 0 -3360803.357 -13109914.065 21628915.424 10 0 59048 49500.00000 0 -1930138.330 -15264647.350 20347112.130 10 0 59048 50400.00000 0 -749573.115 -17359877.452 18670215.273 10 0 59048 51300.00000 0 175131.508 -19330428.179 16630572.983 10 0 59048 52200.00000 0 850510.111 -21113017.716 14267624.716 10 0 59048 53100.00000 0 1294885.766 -22648812.186 11627150.102 10 0 59048 54000.00000 0 1537359.332 -23885816.354 8760389.527 10 0 59048 54900.00000 0 1616337.068 -24781000.296 5723052.560 10 0 59048 55800.00000 0 1577658.638 -25302071.319 2574233.219 10 0 59048 56700.00000 0 1472405.133 -25428814.959 -624746.667 10 0 59048 57600.00000 0 1354480.815 -25153946.900 -3811542.701 10 0 59048 58500.00000 0 1278072.507 -24483438.376 -6924016.959 10 0 59048 59400.00000 0 1295096.184 -23436300.181 -9901465.322 10 0 59048 60300.00000 0 1452741.150 -22043833.727 -12685817.427 10 0 59048 61200.00000 0 1791218.054 -20348380.591 -15222784.017 10 0 59048 62100.00000 0 2341808.259 -18401623.654 -17462927.834 10 0 59048 63000.00000 0 3125298.935 -16262512.081 -19362635.981 10 0 59048 63900.00000 0 4150871.434 -13994898.479 -20884973.969 10 0 59048 64800.00000 0 5415490.869 -11664988.531 -22000404.589 10 0 59048 65700.00000 0 6903823.174 -9338710.921 -22687357.765 10 0 59048 66600.00000 0 8588683.188 -7079118.390 -22932640.886 10 0 59048 67500.00000 0 10431994.755 -4943928.673 -22731682.564 10 0 59048 68400.00000 0 12386222.156 -2983307.613 -22088606.202 10 0 59048 69300.00000 0 14396212.297 -1237986.025 -21016133.184 10 0 59048 70200.00000 0 16401370.098 262212.789 -19535318.792 10 0 59048 71100.00000 0 18338075.744 1499375.521 -17675127.135 10 0 59048 72000.00000 0 20142242.545 2467991.950 -15471854.361 10 0 59048 72900.00000 0 21751908.664 3174920.779 -12968412.210 10 0 59048 73800.00000 0 23109754.822 3638832.392 -10213486.404 10 0 59048 74700.00000 0 24165443.410 3889154.451 -7260586.727 10 0 59048 75600.00000 0 24877682.196 3964566.861 -4167007.443 10 0 59048 76500.00000 0 25215927.424 3911111.192 -992718.226 10 0 59048 77400.00000 0 25161656.257 3779995.336 2200792.957 10 0 59048 78300.00000 0 24709156.484 3625186.640 5351702.984 10 0 59048 79200.00000 0 23865801.450 3500895.115 8399040.401 10 0 59048 80100.00000 0 22651799.417 3459052.625 11283853.608 10 0 59048 81000.00000 0 21099428.173 3546893.803 13950338.781 10 0 59048 81900.00000 0 19251786.767 3804740.023 16346906.806 10 0 59048 82800.00000 0 17161115.889 4264079.187 18427169.662 10 0 59048 83700.00000 0 14886755.978 4946021.822 20150828.381 10 0 59048 84600.00000 0 12492826.653 5860198.517 21484446.519 10 0 59048 85500.00000 0 10045722.499 7004145.593 22402094.944 10 0 59049 0.00000 0 7611527.544 8363205.936 22885856.129 10 0 59049 900.00000 0 5253454.124 9910951.313 22926178.309 10 0 59049 1800.00000 0 3029410.903 11610109.616 22522072.356 10 0 59049 2700.00000 0 989800.489 13413962.401 21681146.797 10 0 59049 3600.00000 0 -824363.690 15268155.365 20419479.148 10 0 59049 4500.00000 0 -2382942.223 17112849.398 18761324.409 10 0 59049 5400.00000 0 -3667694.941 18885123.930 16738664.694 10 0 59049 6300.00000 0 -4672803.222 20521533.645 14390606.795 10 0 59049 7200.00000 0 -5404866.953 21960712.145 11762637.744 10 0 59049 8100.00000 0 -5882375.763 23145913.470 8905751.383 10 0 59049 9000.00000 0 -6134676.293 24027384.083 5875461.910 10 0 59049 9900.00000 0 -6200478.845 24564464.268 2730723.265 10 0 59049 10800.00000 0 -6125966.710 24727328.844 -467224.507 10 0 59049 11700.00000 0 -5962588.892 24498291.943 -3656058.694 10 0 59049 12600.00000 0 -5764630.858 23872618.984 -6773602.395 10 0 59049 13500.00000 0 -5586667.927 22858810.023 -9759052.567 10 0 59049 14400.00000 0 -5481011.203 21478341.338 -12554181.949 10 0 59049 15300.00000 0 -5495256.395 19764875.492 -15104489.601 10 0 59049 16200.00000 0 -5670041.454 17762973.059 -17360276.126 10 0 59049 17100.00000 0 -6037109.816 15526360.523 -19277621.398 10 0 59049 18000.00000 0 -6617762.637 13115827.938 -20819244.879 10 0 59049 18900.00000 0 -7421766.473 10596845.430 -21955231.494 10 0 59049 19800.00000 0 -8446763.057 8036999.286 -22663609.090 10 0 59049 20700.00000 0 -9678206.138 5503355.653 -22930766.771 10 0 59049 21600.00000 0 -11089827.770 3059862.287 -22751706.915 10 0 59049 22500.00000 0 -12644613.932 764896.574 -22130127.088 10 0 59049 23400.00000 0 -14296247.800 -1330938.555 -21078331.486 10 0 59049 24300.00000 0 -15990959.424 -3186680.377 -19616974.909 10 0 59049 25200.00000 0 -17669703.708 -4772457.844 -17774645.356 10 0 59049 26100.00000 0 -19270574.960 -6070470.562 -15587294.418 10 0 59049 27000.00000 0 -20731356.747 -7075457.033 -13097527.360 10 0 59049 27900.00000 0 -21992100.397 -7794635.446 -10353767.302 10 0 59049 28800.00000 0 -22997624.531 -8247122.131 -7409310.213 10 0 59049 29700.00000 0 -23699831.612 -8462854.646 -4321289.302 10 0 59049 30600.00000 0 -24059745.343 -8481066.803 -1149568.886 10 0 59049 31500.00000 0 -24049184.524 -8348381.374 2044410.852 10 0 59049 32400.00000 0 -23652004.223 -8116601.829 5198816.222 10 0 59049 33300.00000 0 -22864853.152 -7840296.628 8252607.173 10 0 59049 34200.00000 0 -21697416.158 -7574277.848 11146706.880 10 0 59049 35100.00000 0 -20172132.014 -7371080.001 13825132.112 10 0 59049 36000.00000 0 -18323398.109 -7278544.614 16236063.594 10 0 59049 36900.00000 0 -16196294.721 -7337611.571 18332836.751 10 0 59049 37800.00000 0 -13844881.003 -7580409.513 20074834.867 10 0 59049 38700.00000 0 -11330132.168 -8028725.308 21428268.504 10 0 59049 39600.00000 0 -8717602.005 -8692916.953 22366826.907 10 0 59049 40500.00000 0 -6074905.900 -9571316.196 22872189.441 10 0 59049 41400.00000 0 -3469126.903 -10650147.147 22934387.321 10 0 59049 42300.00000 0 -964250.798 -11903965.997 22552008.369 10 0 59049 43200.00000 0 1381264.936 -13296605.557 21732240.089 10 0 59049 44100.00000 0 3516688.469 -14782587.464 20490749.055 10 0 59049 45000.00000 0 5400886.531 -16308945.218 18851397.377 10 0 59049 45900.00000 0 7003795.218 -17817383.856 16845800.023 10 0 59049 46800.00000 0 8307427.203 -19246687.403 14512729.659 10 0 59049 47700.00000 0 9306372.765 -20535274.170 11897378.929 10 0 59049 48600.00000 0 10007773.103 -21623792.888 9050493.025 10 0 59049 49500.00000 0 10430766.552 -22457650.197 6027388.388 10 0 59049 50400.00000 0 10605430.596 -22989361.932 2886876.243 10 0 59049 51300.00000 0 10571264.348 -23180627.579 -309887.955 10 0 59049 52200.00000 0 10375276.069 -23004038.444 -3500606.087 10 0 59049 53100.00000 0 10069757.547 -22444345.390 -6623065.229 10 0 59049 54000.00000 0 9709840.983 -21499230.719 -9616366.354 10 0 59049 54900.00000 0 9350943.660 -20179549.967 -12422128.177 10 0 59049 55800.00000 0 9046210.619 -18509032.285 -14985640.856 10 0 59049 56700.00000 0 8844065.697 -16523451.380 -17256945.481 10 0 59049 57600.00000 0 8785976.434 -14269301.780 -19191817.119 10 0 59049 58500.00000 0 8904528.928 -11802036.412 -20752631.333 10 0 59049 59400.00000 0 9221895.096 -9183940.058 -21909097.015 10 0 59049 60300.00000 0 9748757.633 -6481728.482 -22638841.400 10 0 59049 61200.00000 0 10483738.052 -3763974.389 -22927836.383 10 0 59049 62100.00000 0 11413351.598 -1098468.126 -22770658.791 10 0 59049 63000.00000 0 12512490.195 1450376.787 -22170580.636 10 0 59049 63900.00000 0 13745412.218 3823965.522 -21139488.851 10 0 59049 64800.00000 0 15067196.547 5971710.573 -19697637.301 10 0 59049 65700.00000 0 16425598.896 7852877.526 -17873237.066 10 0 59049 66600.00000 0 17763231.741 9438013.076 -15701893.990 10 0 59049 67500.00000 0 19019975.848 10709898.184 -13225905.289 10 0 59049 68400.00000 0 20135521.997 11663989.280 -10493429.498 10 0 59049 69300.00000 0 21051936.315 12308331.764 -7557546.403 10 0 59049 70200.00000 0 21716141.968 12662952.066 -4475225.421 10 0 59049 71100.00000 0 22082213.673 12758756.143 -1306222.491 10 0 59049 72000.00000 0 22113389.530 12635982.524 1888073.219 10 0 59049 72900.00000 0 21783716.598 12342276.368 5045820.785 10 0 59049 73800.00000 0 21079261.964 11930466.377 8105914.885 10 0 59049 74700.00000 0 19998839.105 11456138.410 11009156.696 10 0 59049 75600.00000 0 18554219.408 10975107.737 13699386.621 10 0 59049 76500.00000 0 16769819.811 10540895.779 16124558.039 10 0 59049 77400.00000 0 14681879.088 10202316.684 18237732.360 10 0 59049 78300.00000 0 12337156.028 10001274.458 19997977.368 10 0 59049 79200.00000 0 9791202.247 9970862.512 21371152.562 10 0 59049 80100.00000 0 7106279.683 10133845.110 22330567.145 10 0 59049 81000.00000 0 4349007.226 10501584.511 22857498.575 10 0 59049 81900.00000 0 1587831.998 11073459.423 22941561.830 10 0 59049 82800.00000 0 -1109571.793 11836800.277 22580921.995 10 0 59049 83700.00000 0 -3678870.334 12767345.671 21782345.358 10 0 59049 84600.00000 0 -6061498.969 13830202.808 20561086.839 10 0 59049 85500.00000 0 -8206852.250 14981273.762 18940614.435 99